FW5361 Weather Reports


time (UTC)temp
C
wind
direction
speed
KPH
gust
KPH
rain 1hr
cm
rain 24hr
cm
rain mn
cm
humidity
%
barometer
mb
20260505122040 16 352 0.0 6.4 0.00 0.00 0.00 72 1006.1
20260505121552 16 51 0.0 9.7 0.00 0.00 0.00 72 1006.2
20260505121040 15 126 0.0 9.7 0.00 0.00 0.00 72 1006.1
20260505120539 15 0 1.6 9.7 0.00 0.00 0.00 74 1006.1
20260505120105 15 328 0.0 8.0 0.00 0.00 0.00 72 1006.0
20260505115539 15 0 0.0 8.0 0.00 0.00 0.00 72 1006.1
20260505115039 15 94 1.6 12.9 0.00 0.00 0.00 74 1006.2
20260505114549 15 0 0.0 12.9 0.00 0.00 0.00 76 1006.1
20260505114042 15 0 0.0 4.8 0.00 0.00 0.00 74 1006.0
20260505113543 15 297 0.0 4.8 0.00 0.00 0.00 74 1006.0
20260505113102 15 0 0.0 4.8 0.00 0.00 0.00 75 1006.1
20260505112539 15 0 0.0 4.8 0.00 0.00 0.00 74 1006.0
20260505112042 15 0 0.0 6.4 0.00 0.00 0.00 72 1006.0
20260505111554 15 0 0.0 8.0 0.00 0.00 0.00 73 1006.0
20260505111042 15 0 0.0 8.0 0.00 0.00 0.00 72 1005.9
20260505110541 15 0 0.0 3.2 0.00 0.00 0.00 73 1005.9
20260505102043 15 0 0.0 6.4 0.00 0.00 0.00 74 1005.8
20260505101555 15 0 0.0 6.4 0.00 0.00 0.00 72 1005.8
20260505101042 15 0 0.0 4.8 0.00 0.00 0.00 73 1005.8
20260505100542 15 0 0.0 4.8 0.00 0.00 0.00 73 1005.7
20260505100055 15 0 0.0 3.2 0.00 0.00 0.00 74 1005.6
20260505095542 15 0 0.0 3.2 0.00 0.00 0.00 73 1005.5
20260505095043 15 0 0.0 3.2 0.00 0.00 0.00 73 1005.5
20260505094600 15 0 0.0 1.6 0.00 0.00 0.00 74 1005.5
20260505094039 15 0 0.0 1.6 0.00 0.00 0.00 73 1005.4
20260505093539 16 0 0.0 1.6 0.00 0.00 0.00 72 1005.5
20260505093055 16 0 0.0 8.0 0.00 0.00 0.00 70 1005.4
20260505092539 16 0 0.0 8.0 0.00 0.00 0.00 71 1005.4
20260505092046 16 0 0.0 6.4 0.00 0.00 0.00 70 1005.3
20260505091549 16 0 0.0 6.4 0.00 0.00 0.00 70 1005.5
20260505091042 16 0 1.6 8.0 0.00 0.00 0.00 69 1005.3
20260505090542 16 0 0.0 8.0 0.00 0.00 0.00 68 1005.2
20260505090057 16 0 0.0 11.3 0.00 0.00 0.00 68 1005.2
20260505085544 16 38 1.6 12.9 0.00 0.00 0.00 67 1005.1
20260505085045 16 0 1.6 12.9 0.00 0.00 0.00 67 1005.1
20260505084600 17 44 1.6 12.9 0.00 0.00 0.00 67 1005.0
20260505084042 16 0 1.6 12.9 0.00 0.00 0.00 67 1004.9
20260505083547 16 0 0.0 16.1 0.00 0.00 0.00 67 1004.9
20260505083105 17 43 1.6 16.1 0.00 0.00 0.00 67 1004.8
20260505082540 16 0 1.6 6.4 0.00 0.00 0.00 67 1004.8
20260505082040 16 0 0.0 19.3 0.00 0.00 0.00 67 1004.9
20260505081553 16 0 1.6 19.3 0.00 0.00 0.00 69 1004.8
20260505081040 16 0 0.0 16.1 0.00 0.00 0.00 68 1004.8
20260505080540 16 0 1.6 16.1 0.00 0.00 0.00 68 1004.8
20260505080054 16 0 1.6 16.1 0.00 0.00 0.00 68 1004.7
20260505075542 16 0 1.6 9.7 0.00 0.00 0.00 68 1004.7
20260505075042 16 0 0.0 19.3 0.00 0.00 0.00 68 1004.6
20260505074549 16 0 1.6 19.3 0.00 0.00 0.00 68 1004.7
20260505074043 16 313 0.0 14.5 0.00 0.00 0.00 69 1004.6
20260505073539 16 0 1.6 16.1 0.00 0.00 0.00 68 1004.6
20260505073054 16 0 1.6 16.1 0.00 0.00 0.00 68 1004.5
20260505072542 16 0 1.6 14.5 0.00 0.00 0.00 69 1004.4
20260505072042 16 9 1.6 14.5 0.00 0.00 0.00 70 1004.4
20260505071554 16 0 0.0 8.0 0.00 0.00 0.00 68 1004.3
20260505071043 16 0 0.0 4.8 0.00 0.00 0.00 68 1004.2
20260505070543 16 113 0.0 8.0 0.00 0.00 0.00 68 1004.2
20260505070104 16 62 0.0 8.0 0.00 0.00 0.00 67 1004.2
20260505065539 16 0 0.0 12.9 0.00 0.00 0.00 68 1004.2
20260505065039 16 0 0.0 12.9 0.00 0.00 0.00 68 1004.1
20260505064559 16 0 1.6 12.9 0.00 0.00 0.00 68 1004.2
20260505064039 16 0 0.0 6.4 0.00 0.00 0.00 68 1004.1
20260505063541 16 0 0.0 12.9 0.00 0.00 0.00 68 1004.2
20260505063052 16 0 0.0 12.9 0.00 0.00 0.00 70 1004.2
20260505062541 16 0 1.6 12.9 0.00 0.00 0.00 67 1004.3
20260505062042 16 0 0.0 8.0 0.00 0.00 0.00 70 1004.3
20260505061613 16 0 0.0 8.0 0.00 0.00 0.00 70 1004.5
20260505061042 16 0 0.0 9.7 0.00 0.00 0.00 70 1004.5
20260505060542 16 0 0.0 14.5 0.00 0.00 0.00 68 1004.6
20260505060059 17 0 1.6 14.5 0.00 0.00 0.00 71 1004.6
20260505055540 17 39 4.8 14.5 0.00 0.00 0.00 68 1004.6
20260505055042 16 138 0.0 8.0 0.00 0.00 0.00 70 1004.7
20260505054556 16 0 1.6 8.0 0.00 0.00 0.00 69 1004.9
20260505054040 17 0 0.0 8.0 0.00 0.00 0.00 72 1005.0
20260505053539 17 24 1.6 8.0 0.00 0.00 0.00 71 1005.0
20260505053056 16 0 0.0 6.4 0.00 0.00 0.00 70 1005.1
20260505052539 17 156 0.0 6.4 0.00 0.00 0.00 70 1005.1
20260505052039 17 0 0.0 6.4 0.00 0.00 0.00 70 1005.1
20260505051551 17 0 0.0 8.0 0.00 0.00 0.00 70 1005.2
20260505051041 17 67 0.0 8.0 0.00 0.00 0.00 67 1005.2
20260505050540 17 20 1.6 8.0 0.00 0.00 0.00 69 1005.1
20260505041556 17 37 0.0 6.4 0.00 0.00 0.00 71 1005.1
20260505041041 16 0 0.0 6.4 0.00 0.00 0.00 72 1005.1
20260505040542 16 0 0.0 4.8 0.00 0.00 0.00 70 1005.1
20260505040100 16 0 0.0 14.5 0.00 0.00 0.00 72 1005.2
20260505035544 16 0 0.0 14.5 0.00 0.00 0.00 71 1005.3
20260505035041 16 62 0.0 8.0 0.00 0.00 0.00 71 1005.2
20260505034546 16 129 0.0 4.8 0.00 0.00 0.00 71 1005.3
20260505034040 16 0 0.0 9.7 0.00 0.00 0.00 73 1005.3
20260505033541 17 176 0.0 9.7 0.00 0.00 0.00 74 1005.3
20260505033059 17 20 1.6 9.7 0.00 0.00 0.00 70 1005.2
20260505032543 17 318 0.0 14.5 0.00 0.00 0.00 69 1005.2
20260505032039 17 274 3.2 14.5 0.00 0.00 0.00 71 1005.2
20260505031552 17 0 0.0 11.3 0.00 0.00 0.00 69 1005.2
20260505031039 17 344 1.6 11.3 0.00 0.00 0.00 68 1005.2
20260505030540 17 88 0.0 11.3 0.00 0.00 0.00 68 1005.2
20260505030051 17 0 1.6 11.3 0.00 0.00 0.00 67 1005.1
20260505025540 17 0 0.0 8.0 0.00 0.00 0.00 67 1005.1
20260505025040 16 46 0.0 9.7 0.00 0.00 0.00 68 1005.2
20260505024549 17 9 0.0 9.7 0.00 0.00 0.00 68 1005.1
20260505024039 17 273 1.6 9.7 0.00 0.00 0.00 67 1005.1
20260505023543 17 58 1.6 9.7 0.00 0.00 0.00 68 1005.1
20260505023047 17 0 1.6 9.7 0.00 0.00 0.00 68 1005.1
20260505022539 17 0 0.0 12.9 0.00 0.00 0.00 68 1005.2
20260505022042 17 55 1.6 12.9 0.00 0.00 0.00 66 1005.3
20260505021552 17 0 4.8 12.9 0.00 0.00 0.00 66 1005.2
20260505021040 16 0 0.0 11.3 0.00 0.00 0.00 68 1005.2
20260505020540 16 0 1.6 9.7 0.00 0.00 0.00 69 1005.2
20260505020053 16 0 0.0 9.7 0.00 0.00 0.00 69 1005.1
20260505015540 16 0 1.6 6.4 0.00 0.00 0.00 69 1005.2
20260505015040 16 62 0.0 6.4 0.00 0.00 0.00 68 1005.2
20260505014549 16 352 0.0 9.7 0.00 0.00 0.00 69 1005.1
20260505014039 16 42 1.6 9.7 0.00 0.00 0.00 69 1005.1
20260505013539 16 5 0.0 6.4 0.00 0.00 0.00 68 1005.0
20260505013054 16 0 0.0 6.4 0.00 0.00 0.00 69 1005.1
20260505012539 16 0 1.6 9.7 0.00 0.00 0.00 67 1005.0
20260505012041 16 273 0.0 9.7 0.00 0.00 0.00 68 1005.0
20260505011549 16 0 1.6 9.7 0.00 0.00 0.00 68 1005.0
20260505011043 17 0 1.6 6.4 0.00 0.00 0.00 66 1004.9
20260505010540 17 261 0.0 6.4 0.00 0.00 0.00 65 1004.9
20260505005541 17 93 0.0 8.0 0.00 0.00 0.00 63 1004.9
20260505005040 17 0 1.6 8.0 0.00 0.00 0.00 65 1004.9
20260505004553 17 0 1.6 9.7 0.00 0.00 0.00 64 1004.8
20260505004040 17 0 0.0 9.7 0.00 0.00 0.00 64 1004.8
20260505003543 18 0 1.6 9.7 0.00 0.00 0.00 62 1004.8
20260505003048 18 0 0.0 6.4 0.00 0.00 0.00 60 1004.7
20260505002540 18 0 0.0 12.9 0.00 0.00 0.00 60 1004.8
20260505002040 18 0 1.6 12.9 0.00 0.00 0.00 62 1004.8
20260505001552 18 317 1.6 12.9 0.00 0.00 0.00 60 1004.7
20260505001039 18 269 1.6 14.5 0.00 0.00 0.00 59 1004.8
20260505000542 18 17 3.2 16.1 0.00 0.00 0.00 58 1004.7
20260504235540 19 0 1.6 12.9 0.00 0.00 0.00 58 1004.7
20260504235043 19 92 3.2 16.1 0.00 0.00 0.00 57 1004.7
20260504234603 19 19 1.6 16.1 0.00 0.00 0.00 57 1004.8
20260504234044 20 0 1.6 9.7 0.00 0.00 0.00 56 1004.9
20260504233540 20 0 1.6 14.5 0.00 0.00 0.00 56 1005.0
20260504233055 20 26 3.2 14.5 0.00 0.00 0.00 55 1004.9
20260504232541 20 49 4.8 14.5 0.00 0.00 0.00 54 1005.0
20260504232041 20 63 3.2 20.9 0.00 0.00 0.00 54 1005.0
20260504231553 20 147 6.4 20.9 0.00 0.00 0.00 55 1004.9
20260504231041 20 76 6.4 20.9 0.00 0.00 0.00 53 1005.1
20260504230539 20 177 6.4 19.3 0.00 0.00 0.00 53 1005.1
20260504230054 21 78 8.0 19.3 0.00 0.00 0.00 51 1005.2
20260504225541 21 352 4.8 22.5 0.00 0.00 0.00 51 1005.1
20260504225041 21 49 4.8 30.6 0.00 0.00 0.00 52 1005.2
20260504224554 21 243 6.4 30.6 0.00 0.00 0.00 53 1005.0
20260504224042 20 114 8.0 24.1 0.00 0.00 0.00 53 1005.1
20260504223542 20 245 4.8 24.1 0.00 0.00 0.00 54 1005.2
20260504223055 20 320 1.6 20.9 0.00 0.00 0.00 53 1005.1
20260504222542 21 51 3.2 20.9 0.00 0.00 0.00 54 1005.0
20260504222041 21 143 4.8 20.9 0.00 0.00 0.00 54 1005.2
20260504221552 21 75 3.2 16.1 0.00 0.00 0.00 53 1005.0
20260504221041 21 48 3.2 19.3 0.00 0.00 0.00 53 1005.0
20260504220541 20 351 3.2 19.3 0.00 0.00 0.00 55 1005.0
20260504215540 20 61 4.8 22.5 0.00 0.00 0.00 53 1004.9
20260504215044 21 145 4.8 22.5 0.00 0.00 0.00 55 1005.0
20260504214551 21 136 3.2 19.3 0.00 0.00 0.00 53 1005.1
20260504214040 21 153 4.8 19.3 0.00 0.00 0.00 54 1005.2
20260504213539 20 50 6.4 32.2 0.00 0.00 0.00 53 1005.3
20260504213108 20 188 4.8 40.2 0.00 0.00 0.00 54 1005.4
20260504212539 21 40 6.4 40.2 0.00 0.00 0.00 52 1005.3
20260504212045 21 74 9.7 40.2 0.00 0.00 0.00 52 1005.2
20260504211552 21 38 6.4 29.0 0.00 0.00 0.00 51 1005.2
20260504211039 21 55 8.0 37.0 0.00 0.00 0.00 50 1005.2
20260504210544 22 57 8.0 37.0 0.00 0.00 0.00 51 1005.4
20260504210104 22 171 8.0 27.4 0.00 0.00 0.00 50 1005.5
20260504205542 22 166 11.3 27.4 0.00 0.00 0.00 49 1005.3
20260504205039 22 197 9.7 32.2 0.00 0.00 0.00 49 1005.2
20260504204602 22 123 8.0 32.2 0.00 0.00 0.00 49 1005.0
20260504204043 22 180 11.3 32.2 0.00 0.00 0.00 49 1005.0
20260504203540 22 247 4.8 16.1 0.00 0.00 0.00 52 1005.2
20260504203056 21 155 6.4 24.1 0.00 0.00 0.00 51 1005.1
20260504202540 21 149 9.7 29.0 0.00 0.00 0.00 50 1005.2
20260504202040 22 133 8.0 29.0 0.00 0.00 0.00 50 1005.2
20260504201557 22 10 4.8 22.5 0.00 0.00 0.00 49 1005.0
20260504201039 22 74 4.8 22.5 0.00 0.00 0.00 52 1005.2
20260504200539 22 155 3.2 24.1 0.00 0.00 0.00 51 1005.1
20260504200054 22 88 8.0 24.1 0.00 0.00 0.00 49 1005.3
20260504195541 22 0 8.0 24.1 0.00 0.00 0.00 50 1005.3
20260504195041 22 94 6.4 24.1 0.00 0.00 0.00 49 1005.2
20260504194556 22 352 6.4 24.1 0.00 0.00 0.00 49 1005.3
20260504194041 22 11 4.8 19.3 0.00 0.00 0.00 51 1005.2
20260504193541 22 49 4.8 24.1 0.00 0.00 0.00 49 1005.5
20260504193103 21 74 8.0 24.1 0.00 0.00 0.00 50 1005.7
20260504192540 21 67 6.4 22.5 0.00 0.00 0.00 49 1005.7
20260504192045 22 128 9.7 20.9 0.00 0.00 0.00 50 1005.7
20260504191554 21 80 8.0 24.1 0.00 0.00 0.00 50 1005.7
20260504191041 21 130 4.8 24.1 0.00 0.00 0.00 50 1005.8
20260504190540 21 139 4.8 29.0 0.00 0.00 0.00 52 1005.9
20260504190106 21 167 8.0 29.0 0.00 0.00 0.00 50 1005.8
20260504185540 21 101 9.7 25.7 0.00 0.00 0.00 51 1005.8
20260504185039 21 122 8.0 29.0 0.00 0.00 0.00 50 1006.0
20260504184557 21 189 11.3 29.0 0.00 0.00 0.00 50 1006.0
20260504184042 21 43 6.4 20.9 0.00 0.00 0.00 51 1006.1
20260504183541 21 99 6.4 17.7 0.00 0.00 0.00 51 1006.1
20260504183058 21 194 1.6 17.7 0.00 0.00 0.00 54 1006.1
20260504182539 21 155 6.4 20.9 0.00 0.00 0.00 53 1006.1
20260504182041 21 38 8.0 27.4 0.00 0.00 0.00 50 1006.0
20260504181548 21 9 3.2 27.4 0.00 0.00 0.00 52 1006.1
20260504181041 20 11 8.0 25.7 0.00 0.00 0.00 51 1006.1
20260504180541 21 96 4.8 22.5 0.00 0.00 0.00 53 1006.0
20260504180130 20 25 11.3 22.5 0.00 0.00 0.00 53 1006.3
20260504175544 20 0 6.4 16.1 0.00 0.00 0.00 55 1006.3
20260504175041 20 41 3.2 19.3 0.00 0.00 0.00 53 1006.3
20260504174552 20 110 9.7 19.3 0.00 0.00 0.00 53 1006.5
20260504174040 20 68 3.2 17.7 0.00 0.00 0.00 53 1006.4
20260504173540 20 98 6.4 17.7 0.00 0.00 0.00 55 1006.5
20260504173054 20 57 3.2 20.9 0.00 0.00 0.00 53 1006.5
20260504172540 20 159 6.4 20.9 0.00 0.00 0.00 56 1006.6
20260504172040 20 159 4.8 22.5 0.00 0.00 0.00 53 1006.7
20260504171552 20 300 6.4 22.5 0.00 0.00 0.00 56 1006.7
20260504171041 19 88 3.2 17.7 0.00 0.00 0.00 54 1006.9
20260504170537 19 298 4.8 27.4 0.00 0.00 0.00 55 1006.9
20260504151037 16 0 1.6 20.9 0.00 0.00 0.00 60 1007.6
20260504150541 16 136 6.4 20.9 0.00 0.00 0.00 54 1007.7
20260504141042 16 30 1.6 14.5 0.00 0.00 0.00 56 1008.3
20260504140542 15 123 4.8 14.5 0.00 0.00 0.00 56 1008.4
20260504130543 12 0 3.2 12.9 0.00 0.00 0.00 62 1008.8